Hourly Data Report for September 29, 2017

All times are specified in Local Standard Time (LST). Add 1 hour to adjust for Daylight Saving Time where and when it is observed.

BUCTOUCHE CDA CS
NEW BRUNSWICK

46°25'49.006" N
64°46'05.009" W
35.90 m
8100593
71666
ABT

Download Data

Hourly Data (September 2017)
Hourly Data Report for September 29, 2017
Temp Definition
°C
Dew Point Temp Definition
°C
Rel Hum Definition
%
Wind Dir Definition
10's deg

Wind Spd Definition
km/h
Visibility Definition
km
Stn Press Definition
kPa
Hmdx Definition


Wind Chill Definition


Weather Definition


TIME
00:00 8.5 4.7 77 26 12   100.11     LegendNANA
01:00 7.8 4.4 79 26 11   100.14     LegendNANA
02:00 7.2 4.1 80 26 12   100.15     LegendNANA
03:00 6.8 3.7 81 27 12   100.13     LegendNANA
04:00 6.2 3.1 81 27 11   100.19     LegendNANA
05:00 5.7 2.8 82 28 10   100.23     LegendNANA
06:00 5.5 2.7 82 28 13   100.28     LegendNANA
07:00 5.6 2.7 82 27 13   100.36     LegendNANA
08:00 7.3 3.3 76 28 12   100.42     LegendNANA
09:00 9.3 2.9 64 31 19   100.47     LegendNANA
10:00 10.5 2.9 59 32 19   100.51     LegendNANA
11:00 10.4 2.3 57 33 17   100.55     LegendNANA
12:00 11.1 3.1 58 32 20   100.60     LegendNANA
13:00 10.6 3.0 59 32 19   100.65     LegendNANA
14:00 10.7 3.0 59 32 17   100.72     LegendNANA
15:00 11.4 2.7 55 33 18   100.77     LegendNANA
16:00 11.3 3.7 60 33 14   100.82     LegendNANA
17:00 10.3 3.4 62 32 12   100.90     LegendNANA
18:00 9.1 4.2 71 33 8   100.98     LegendNANA
19:00 8.7 4.1 73 33 12   101.06     LegendNANA
20:00 7.7 4.9 82 33 6   101.14     LegendNANA
21:00 7.3 5.6 88 34 9   101.22     LegendNANA
22:00 6.7 5.1 90 33 9   101.28     LegendNANA
23:00 6.5 5.1 91 32 8   101.32     LegendNANA

Notes on Data Quality.

Legend

  • E = Estimated
  • M = Missing
  • NA = Not Available
  • ‡ = Partner data that is not subject to review by the National Climate Archives
Date modified: